Location: Observatoire de La Sitelle
(46.0500°N, 74.2167°W)
Time: 03:25:39
(UTC-05:00)

Tiangong 1 - Visible Passes

Search period start: 24 February 2018 00:00
Search period end: 06 March 2018 00:00
Orbit: 246 x 267 km, 42.8° (Epoch: 24 February)

Date Brightness Start Highest point End Pass type
(mag) Time Alt. Az. Time Alt. Az. Time Alt. Az.
02 Mar 2.7 18:50:32 10° S 18:51:28 12° SSE 18:51:28 12° SSE visible
03 Mar 2.4 18:41:13 10° SSW 18:42:42 15° SSE 18:43:22 14° SE visible
04 Mar 2.1 18:31:52 10° SW 18:33:37 19° SSE 18:34:57 13° ESE visible
05 Mar 1.9 18:22:24 10° SW 18:24:17 23° SSE 18:26:12 10° ESE visible
05 Mar 3.9 19:55:39 10° WSW 19:55:40 10° WSW 19:55:40 10° WSW visible
